User: anonymous   Login
Location: Windsor
(43.2292°N, 89.3015°W)
Time: 11:24:44
(UTC+00:00)
Language:

MOZHAYETS 4 - Orbit

View from above orbital plane
View from above orbital plane
View from above satellite
View from above satellite

Ground track
Ground track

The orbit data is extracted from the following two-line orbital elements,

1 27939U 03042A   22176.03511049  .00000544  00000-0  10505-3 0  9997
2 27939  98.1927 316.7538 0013062 178.3219 181.8014 14.67368846  2158
Epoch (UTC): 25 June 2022 00:50:33
Eccentricity: 0.0013062
inclination: 98.1927°
perigee height: 660 km
apogee height: 678 km
right ascension of ascending node: 316.7538°
argument of perigee: 178.3219°
revolutions per day: 14.67368846
mean anomaly at epoch: 181.8014°
orbit number at epoch: 215

The dashed part of the orbit path shows where the satellite is in the earth's shadow,  

DLR